This demonstration page uses our WeatherBlox Daily Observations layout. Learn more.

Left ArrowRight Arrow

38.88101, -77.10428

Hourly Observations for May 13, 2020

Temp ( °F °C ) Dew Point ( °F °C ) Humidity (%) Winds ( mph kmh ) Pressure ( in mb ) Visibility ( mi km ) Precip ( " mm )
12:52 am 00:52 Mostly Clear 52 11.1 34 1.1 50 50 Calm 30.24 1024 10 16.0934 0 0
1:52 am 01:52 Mostly Clear 50 10 29 -1.7 44 44 WNW 5 7 30.25 1024 10 16.0934 0 0
2:52 am 02:52 Clear 49 9.4 28 -2.2 44 44 NW 5 7 30.25 1024 10 16.0934 0 0
3:52 am 03:52 Clear 45 7.2 38 3.3 77 77 NNW 5 7 30.26 1025 10 16.0934 0 0
4:52 am 04:52 Clear 46 7.8 35 1.7 66 66 Calm 30.28 1025 10 16.0934 0 0
5:52 am 05:52 Mostly Clear 47 8.3 37 2.8 69 69 SSW 5 7 30.3 1026 10 16.0934 0 0
6:52 am 06:52 Partly Cloudy 47 8.3 37 2.8 69 69 SW 3 6 30.32 1027 10 16.0934 0 0
7:52 am 07:52 Partly Cloudy 50 10 42 5.6 74 74 S 5 7 30.35 1028 10 16.0934 0 0
8:52 am 08:52 Partly Cloudy 53 11.7 41 5 64 64 S 6 9 30.35 1028 10 16.0934 0 0
9:52 am 09:52 Mostly Sunny 58 14.4 40 4.4 51 51 SE 7 11 30.35 1028 10 16.0934 0 0
10:52 am 10:52 Mostly Sunny 64 17.8 31 -0.6 29 29 W 10 17 30.34 1027 10 16.0934 0 0
11:52 am 11:52 Mostly Sunny 66 18.9 33 0.6 29 29 SW 10 17 30.33 1027 10 16.0934 0 0
12:52 pm 12:52 Partly Cloudy 67 19.4 31 -0.6 26 26 VRB 5 7 30.31 1026 10 16.0934 0 0
1:52 pm 13:52 Partly Cloudy 68 20 31 -0.6 25 25 W 10 17 30.29 1026 10 16.0934 0 0
2:52 pm 14:52 Partly Cloudy 68 20 30 -1.1 24 24 WSW 6 9 30.27 1025 10 16.0934 0 0
3:52 pm 15:52 Mostly Sunny 69 20.6 31 -0.6 24 24 S 8 13 30.25 1025 10 16.0934 0 0
4:52 pm 16:52 Partly Cloudy 70 21.1 33 0.6 26 26 VRB 7 11 30.24 1024 10 16.0934 0 0
5:52 pm 17:52 Partly Cloudy 69 20.6 32 0 25 25 S 8 13 30.24 1024 10 16.0934 0 0
6:52 pm 18:52 Partly Cloudy 67 19.4 38 3.3 35 35 S 9 15 30.24 1024 10 16.0934 0 0
7:52 pm 19:52 Mostly Sunny 62 16.7 44 6.7 52 52 S 9 15 30.25 1024 10 16.0934 0 0
8:52 pm 20:52 Clear 60 15.6 44 6.7 56 56 S 8 13 30.26 1025 10 16.0934 0 0
9:52 pm 21:52 Mostly Clear 59 15 42 5.6 54 54 S 8 13 30.27 1025 10 16.0934 0 0
10:52 pm 22:52 Mostly Clear 56 13.3 41 5 57 57 SSW 8 13 30.29 1026 10 16.0934 0 0
11:52 pm 23:52 Mostly Clear 56 13.3 44 6.7 65 65 S 5 7 30.29 1026 10 16.0934 0 0

Powered by AerisWeather